Погода в Артыште

Россия / Кемеровская область (Кузбасс)     54°07′04″N   86°16′21″E
темп.,
°C
ветер,
м/с
пор.,
м/с
влажн.,
%
обл.,
%
осадки,
мм/ч
давл.,
гПа
погр.,
м
10 мая, пн
пн1001:00+4ссв512700 0.0 1020543
04:00+2ссв411840 0.0 1020403
07:00+3св38820 0.0 1021278
10:00+9всв46492 0.0 1021874
13:00+13всв57340 0.0 10191394
16:00+15всв57334 0.0 10171906
19:00+14всв583919 0.0 10162044
22:00+8всв512573 0.0 1017596
11 мая, вт
вт1101:00+6св41068100 0.0 1016352
04:00+5ссв3972100 0.0 1015239
07:00+5ссв3873100 0.0 1015243
10:00+12св4542100 0.0 1013913
13:00+15св4530100 0.0 10131859
16:00+17всв34275 0.0 10122443
19:00+16св463396 0.0 10131987
22:00+10ссв365214 0.0 1015120
12 мая, ср
ср1201:00+7ссз37751 0.0 1016122
04:00+5с25805 0.0 101690
07:00+8с377125 0.0 1016202
10:00+14ссв46461 0.0 1016865
13:00+17св553195 0.0 10152878
16:00+18ссв4528100 0.0 10152969
19:00+16ссв463492 0.0 10152060
22:00+9с38635 0.0 1018175
13 мая, чт
чт1301:00+7с26741 0.0 1019103
04:00+6ссв12770 0.0 101815
07:00+8св11621 0.0 101859
10:00+14всв2238100 0.0 10171323
13:00+17всв223115 0.0 10162331
16:00+18св332867 0.0 10152574
19:00+16всв213498 0.0 10151627
22:00+10ююз115326 0.0 101610
14 мая, пт
пт1401:00+9зюз115976 0.0 101510
04:00+9з1159100 0.0 101410
07:00+9сз3871100 0.2 1015336
10:00+11зсз4876100 1.0 1015964
13:00+10сз586435 1.5 10161217
16:00+13сз6950100 0.3 10161957
19:00+13сз494668 0.3 10171735
22:00+8ссз3946100 0.0 1021369